EW6283 Weather Reports


time (UTC)temp
C
wind
direction
speed
KPH
gust
KPH
rain 1hr
cm
rain 24hr
cm
rain mn
cm
humidity
%
barometer
mb
20260505035143 14 122 4.8 16.1 0.00 0.00 0.00 56 1006.6
20260505034528 14 206 3.2 27.4 0.00 0.00 0.00 56 1006.5
20260505034028 14 210 9.7 27.4 0.00 0.00 0.00 55 1006.6
20260505033528 15 108 6.4 24.1 0.00 0.00 0.00 55 1006.5
20260505033144 14 197 12.9 24.1 0.00 0.00 0.00 55 1006.5
20260505032528 14 187 6.4 22.5 0.00 0.00 0.00 55 1006.4
20260505032027 15 193 6.4 25.7 0.00 0.00 0.00 54 1006.4
20260505031644 15 195 8.0 16.1 0.00 0.00 0.00 53 1006.5
20260505031028 15 201 16.1 24.1 0.00 0.00 0.00 53 1006.4
20260505030643 15 233 3.2 17.7 0.00 0.00 0.00 52 1006.4
20260505030028 15 175 6.4 14.5 0.00 0.00 0.00 52 1006.4
20260505025528 15 206 6.4 16.1 0.00 0.00 0.00 51 1006.4
20260505025027 15 219 9.7 17.7 0.00 0.00 0.00 51 1006.3
20260505024644 15 197 17.7 17.7 0.00 0.00 0.00 51 1006.4
20260505024027 15 210 6.4 19.3 0.00 0.00 0.00 50 1006.3
20260505023527 15 177 3.2 20.9 0.00 0.00 0.00 50 1006.3
20260505023029 15 153 6.4 20.9 0.00 0.00 0.00 49 1006.4
20260505022528 15 193 14.5 14.5 0.00 0.00 0.00 49 1006.4
20260505022142 15 262 4.8 14.5 0.00 0.00 0.00 48 1006.4
20260505021529 15 204 6.4 14.5 0.00 0.00 0.00 48 1006.4
20260505021027 15 199 1.6 14.5 0.00 0.00 0.00 49 1006.4
20260505020643 15 204 3.2 14.5 0.00 0.00 0.00 49 1006.4
20260505020027 15 222 8.0 8.0 0.00 0.00 0.00 50 1006.4
20260505015642 15 214 4.8 12.9 0.00 0.00 0.00 50 1006.2
20260505015144 15 216 6.4 12.9 0.00 0.00 0.00 50 1006.2
20260505014644 15 222 4.8 9.7 0.00 0.00 0.00 51 1006.2
20260505014143 15 218 4.8 11.3 0.00 0.00 0.00 51 1006.2
20260505013527 15 217 4.8 11.3 0.00 0.00 0.00 50 1006.2
20260505013028 15 238 3.2 11.3 0.00 0.00 0.00 50 1006.1
20260505012758 15 224 9.7 11.3 0.00 0.00 0.00 50 1006.0
20260505012142 15 224 6.4 14.5 0.00 0.00 0.00 49 1006.0
20260505011529 15 210 4.8 14.5 0.00 0.00 0.00 49 1006.0
20260505011028 15 215 6.4 11.3 0.00 0.00 0.00 48 1005.9
20260505010643 15 210 6.4 11.3 0.00 0.00 0.00 48 1005.9
20260505010028 15 216 6.4 11.3 0.00 0.00 0.00 47 1006.0
20260505005527 16 228 6.4 9.7 0.00 0.00 0.00 46 1005.9
20260505005027 16 220 3.2 8.0 0.00 0.00 0.00 45 1005.9
20260505004644 16 235 1.6 11.3 0.00 0.00 0.00 45 1005.9
20260505004143 16 220 4.8 11.3 0.00 0.00 0.00 44 1005.8
20260505003642 16 249 3.2 6.4 0.00 0.00 0.00 44 1005.8
20260505003028 16 249 3.2 8.0 0.00 0.00 0.00 44 1005.7
20260505002528 16 254 3.2 6.4 0.00 0.00 0.00 44 1005.7
20260505002027 17 239 3.2 8.0 0.00 0.00 0.00 43 1005.5
20260505001529 17 216 3.2 8.0 0.00 0.00 0.00 42 1005.4
20260505001028 17 216 4.8 8.0 0.00 0.00 0.00 42 1005.4
20260505000527 17 210 3.2 9.7 0.00 0.00 0.00 41 1005.3
20260505000028 18 222 3.2 9.7 0.00 0.00 0.00 40 1005.4
20260504235757 18 218 4.8 8.0 0.00 0.00 0.00 39 1005.4
20260504235028 18 172 3.2 12.9 0.00 0.00 0.00 39 1005.3
20260504234529 18 196 8.0 16.1 0.00 0.00 0.00 38 1005.3
20260504234028 18 186 14.5 16.1 0.00 0.00 0.00 38 1005.1
20260504233528 18 167 6.4 16.1 0.00 0.00 0.00 38 1005.1
20260504233259 18 206 8.0 25.7 0.00 0.00 0.00 37 1005.0
20260504232529 18 154 6.4 25.7 0.00 0.00 0.00 37 1005.0
20260504232027 18 218 12.9 25.7 0.00 0.00 0.00 37 1004.9
20260504231644 19 212 11.3 16.1 0.00 0.00 0.00 37 1004.9
20260504231027 19 232 6.4 14.5 0.00 0.00 0.00 37 1004.8
20260504230528 19 209 6.4 19.3 0.00 0.00 0.00 37 1004.7
20260504230029 19 211 12.9 16.1 0.00 0.00 0.00 36 1004.6
20260504225528 19 191 6.4 19.3 0.00 0.00 0.00 36 1004.5
20260504225143 20 199 4.8 19.3 0.00 0.00 0.00 36 1004.5
20260504224528 20 189 11.3 22.5 0.00 0.00 0.00 35 1004.5
20260504224027 20 204 8.0 27.4 0.00 0.00 0.00 36 1004.4
20260504223527 20 210 12.9 29.0 0.00 0.00 0.00 35 1004.4
20260504223030 20 193 14.5 29.0 0.00 0.00 0.00 36 1004.5
20260504222643 20 189 17.7 24.1 0.00 0.00 0.00 36 1004.4
20260504222027 20 229 6.4 20.9 0.00 0.00 0.00 37 1004.5
20260504221758 20 158 11.3 22.5 0.00 0.00 0.00 36 1004.5
20260504221027 20 213 8.0 22.5 0.00 0.00 0.00 37 1004.5
20260504220528 20 218 8.0 22.5 0.00 0.00 0.00 36 1004.5
20260504220029 20 189 19.3 22.5 0.00 0.00 0.00 35 1004.5
20260504215757 20 196 12.9 25.7 0.00 0.00 0.00 36 1004.6
20260504215028 20 207 11.3 25.7 0.00 0.00 0.00 35 1004.6
20260504214643 20 201 8.0 25.7 0.00 0.00 0.00 36 1004.6
20260504214142 20 176 14.5 25.7 0.00 0.00 0.00 36 1004.6
20260504213642 20 206 24.1 25.7 0.00 0.00 0.00 35 1004.6
20260504213028 20 185 14.5 17.7 0.00 0.00 0.00 36 1004.6
20260504212643 20 195 8.0 16.1 0.00 0.00 0.00 36 1004.6
20260504212257 20 175 1.6 27.4 0.00 0.00 0.00 36 1004.6
20260504211644 20 200 11.3 27.4 0.00 0.00 0.00 37 1004.6
20260504211027 20 189 11.3 33.8 0.00 0.00 0.00 37 1004.8
20260504210642 20 224 8.0 33.8 0.00 0.00 0.00 37 1004.9
20260504210143 20 188 11.3 29.0 0.00 0.00 0.00 36 1004.9
20260504205528 20 212 12.9 32.2 0.00 0.00 0.00 37 1004.9
20260504205027 19 193 17.7 32.2 0.00 0.00 0.00 36 1004.9
20260504204529 20 235 27.4 29.0 0.00 0.00 0.00 36 1005.0
20260504204142 20 207 9.7 30.6 0.00 0.00 0.00 37 1005.0
20260504203527 19 222 19.3 30.6 0.00 0.00 0.00 36 1005.1
20260504203144 20 175 19.3 30.6 0.00 0.00 0.00 36 1005.0
20260504202643 19 225 16.1 30.6 0.00 0.00 0.00 37 1005.2
20260504202142 19 214 12.9 27.4 0.00 0.00 0.00 37 1005.2
20260504201645 19 216 22.5 35.4 0.00 0.00 0.00 37 1005.2
20260504201027 18 193 17.7 35.4 0.00 0.00 0.00 37 1005.2
20260504200528 19 206 8.0 33.8 0.00 0.00 0.00 36 1005.2
20260504200028 19 256 19.3 41.8 0.00 0.00 0.00 36 1005.2
20260504195643 19 225 20.9 41.8 0.00 0.00 0.00 36 1005.3
20260504195142 19 216 14.5 29.0 0.00 0.00 0.00 37 1005.2
20260504194643 19 168 3.2 25.7 0.00 0.00 0.00 36 1005.3
20260504194142 20 191 14.5 29.0 0.00 0.00 0.00 37 1005.3
20260504193642 19 217 16.1 29.0 0.00 0.00 0.00 37 1005.3
20260504193029 19 227 11.3 30.6 0.00 0.00 0.00 37 1005.3
20260504192528 18 235 14.5 32.2 0.00 0.00 0.00 37 1005.4
20260504192028 18 210 14.5 32.2 0.00 0.00 0.00 37 1005.5
20260504191529 18 154 12.9 33.8 0.00 0.00 0.00 38 1005.5
20260504191027 18 201 16.1 33.8 0.00 0.00 0.00 39 1005.6
20260504190527 18 218 11.3 25.7 0.00 0.00 0.00 38 1005.6
20260504190144 18 208 17.7 25.7 0.00 0.00 0.00 38 1005.7
20260504185528 18 82 8.0 37.0 0.00 0.00 0.00 38 1005.7
20260504185258 18 239 4.8 37.0 0.00 0.00 0.00 38 1005.7
20260504184529 18 213 11.3 35.4 0.00 0.00 0.00 37 1005.6
20260504184142 18 245 22.5 35.4 0.00 0.00 0.00 37 1005.7
20260504183527 18 231 37.0 35.4 0.00 0.00 0.00 37 1005.6
20260504183144 19 201 25.7 38.6 0.00 0.00 0.00 37 1005.9
20260504182527 19 251 6.4 30.6 0.00 0.00 0.00 37 1005.6
20260504182027 19 176 20.9 32.2 0.00 0.00 0.00 37 1005.7
20260504181529 18 199 11.3 29.0 0.00 0.00 0.00 40 1005.8
20260504181142 18 175 14.5 29.0 0.00 0.00 0.00 40 1005.8
20260504180527 18 236 9.7 27.4 0.00 0.00 0.00 40 1005.9
20260504180143 17 249 11.3 40.2 0.00 0.00 0.00 39 1006.0
20260504175527 17 203 19.3 43.5 0.00 0.00 0.00 38 1006.0
20260504175142 17 202 27.4 43.5 0.00 0.00 0.00 39 1006.2
20260504174529 18 220 11.3 33.8 0.00 0.00 0.00 38 1006.1
20260504174027 17 193 27.4 35.4 0.00 0.00 0.00 39 1006.1
20260504173643 17 336 27.4 35.4 0.00 0.00 0.00 38 1006.0
20260504173143 17 250 8.0 32.2 0.00 0.00 0.00 41 1006.4
20260504172642 17 220 22.5 29.0 0.00 0.00 0.00 40 1006.5
20260504172027 17 232 19.3 30.6 0.00 0.00 0.00 43 1006.7
20260504171528 17 233 20.9 24.1 0.00 0.00 0.00 42 1006.6
20260504171143 16 199 11.3 24.1 0.00 0.00 0.00 40 1006.7
20260504170528 17 213 14.5 27.4 0.00 0.00 0.00 41 1006.7
20260504151027 15 212 20.9 35.4 0.00 0.00 0.00 42 1007.5
20260504150642 15 177 16.1 37.0 0.00 0.00 0.00 44 1007.5
20260504141027 14 245 19.3 40.2 0.00 0.00 0.00 43 1007.9
20260504140527 13 270 25.7 45.1 0.00 0.00 0.00 45 1007.9
20260504130527 12 236 24.1 32.2 0.00 0.00 0.00 47 1008.4
20260504110528 10 227 4.8 19.3 0.00 0.00 0.00 53 1008.8
20260504110144 10 213 6.4 19.3 0.00 0.00 0.00 53 1008.9
20260504081529 8 203 4.8 16.1 0.00 0.00 0.00 59 1008.5
20260504081142 8 243 14.5 17.7 0.00 0.00 0.00 58 1008.6
20260504080527 8 243 8.0 12.9 0.00 0.00 0.00 59 1008.7
20260504080259 8 234 6.4 12.9 0.00 0.00 0.00 59 1008.6
20260504050528 8 232 8.0 17.7 0.00 0.00 0.00 52 1009.4
20260504045643 8 251 16.1 16.1 0.00 0.00 0.00 53 1009.6
20260504045028 8 264 6.4 17.7 0.00 0.00 0.00 53 1009.6
20260504044532 8 231 6.4 17.7 0.00 0.00 0.00 52 1009.7
20260504044028 8 274 12.9 17.7 0.00 0.00 0.00 52 1009.6
20260504043528 8 227 9.7 11.3 0.00 0.00 0.00 53 1009.6
20260504043145 8 241 4.8 11.3 0.00 0.00 0.00 53 1009.6
20260504042644 8 280 6.4 11.3 0.00 0.00 0.00 53 1009.6
20260504042027 8 268 4.8 8.0 0.00 0.00 0.00 53 1009.5
20260504041532 8 226 1.6 8.0 0.00 0.00 0.00 53 1009.5
20260504041259 8 228 4.8 6.4 0.00 0.00 0.00 52 1009.4
20260504040528 8 237 4.8 6.4 0.00 0.00 0.00 53 1009.4
20260504040028 7 304 0.0 11.3 0.00 0.00 0.00 54 1009.3
20260504035643 8 237 3.2 11.3 0.00 0.00 0.00 53 1009.3